Date String (YYYY-MM-DD hh:mm:ss) UTC,Instrument flags,Ambient pressure (hPa),Sample flow (lpm),Bypass flow (lpm),Sample temperature (°C),Ambient temperature (°C),ASC tube jacket temperature (°C),LED temperature (°C),Box temperature (°C),Sample RH (%),Span deviation,Mass concentration (μg/m³),Mass concentration (μg/m³),Mass concentration (μg/m³)
DateTimeUTC,F1_M11,P_M11,Q1_M11,Q2_M11,T1_M11,T2_M11,T3_M11,T4_M11,T5_M11,U1_M11,ZSPAN_M11,X0_M11,X2_M11,X1_M11
2022-03-01 22:00:00,,0828.9,5.00,0.00,30.4,29.7,00.0,39.1,32.2,08.6,0000.0,0006.35,0002.31,0001.46
2022-03-01 22:01:00,,0828.6,5.00,0.00,30.4,29.7,00.0,39.2,32.2,08.3,0000.0,0006.39,0002.29,0001.45
2022-03-01 22:02:00,,0828.7,5.01,0.00,30.4,29.7,00.0,39.2,32.3,08.3,0000.0,0006.94,0002.30,0001.46
2022-03-01 22:03:00,,0828.6,5.00,0.00,30.4,28.9,00.0,39.2,32.1,08.3,0000.0,0007.53,0002.33,0001.47
2022-03-01 22:04:00,,0828.8,5.00,0.00,30.3,26.7,00.0,39.2,31.5,08.5,0000.0,0007.67,0002.33,0001.46
2022-03-01 22:05:00,,0828.7,5.01,0.00,30.1,25.9,00.0,39.2,31.2,08.6,0000.0,0007.82,0002.30,0001.45
2022-03-01 22:06:00,,0828.7,5.00,0.00,30.0,26.2,00.0,39.1,31.3,08.5,0000.0,0008.08,0002.39,0001.45
2022-03-01 22:07:00,,0828.6,5.00,0.00,29.9,26.7,00.0,39.0,31.3,08.7,0000.0,0007.94,0002.42,0001.44
2022-03-01 22:08:00,,0828.8,4.99,0.00,29.9,27.2,00.0,39.0,31.4,08.9,0000.0,0007.46,0002.43,0001.42
2022-03-01 22:09:00,,0828.7,5.00,0.00,29.9,27.6,00.0,39.0,31.5,09.0,0000.0,0007.87,0002.54,0001.42
2022-03-01 22:10:00,,0828.7,5.00,0.00,29.9,27.9,00.0,38.9,31.5,08.7,0000.0,0007.99,0002.53,0001.41
2022-03-01 22:11:00,,0828.6,4.99,0.00,29.9,28.2,00.0,38.9,31.6,08.7,0000.0,0007.90,0002.46,0001.41
2022-03-01 22:12:00,,0828.5,4.99,0.00,29.9,28.4,00.0,38.9,31.7,08.7,0000.0,0007.76,0002.48,0001.41
2022-03-01 22:13:00,,0828.5,5.01,0.00,30.0,28.5,00.0,38.9,31.7,08.6,0000.0,0007.34,0002.50,0001.43
2022-03-01 22:14:00,,0828.6,4.99,0.00,30.0,28.7,00.0,38.9,31.7,08.7,0000.0,0007.38,0002.53,0001.43
2022-03-01 22:15:00,,0828.5,5.01,0.00,30.0,28.8,00.0,38.9,31.8,08.7,0000.0,0007.29,0002.49,0001.45
2022-03-01 22:16:00,,0828.5,4.98,0.00,30.0,28.9,00.0,38.9,31.8,08.6,0000.0,0008.13,0002.57,0001.47
2022-03-01 22:17:00,,0828.5,5.01,0.00,30.1,29.0,00.0,39.0,31.9,08.6,0000.0,0008.18,0002.56,0001.48
2022-03-01 22:18:00,,0828.8,4.99,0.00,30.1,29.1,00.0,39.0,31.9,08.7,0000.0,0007.99,0002.48,0001.47
2022-03-01 22:19:00,,0828.6,5.02,0.00,30.1,29.1,00.0,39.0,31.9,08.9,0000.0,0008.18,0002.48,0001.48
2022-03-01 22:20:00,,0828.8,4.99,0.00,30.2,29.2,00.0,39.0,32.0,08.7,0000.0,0007.98,0002.44,0001.50
2022-03-01 22:21:00,,0828.5,4.99,0.00,30.2,29.3,00.0,39.0,32.0,08.6,0000.0,0007.78,0002.46,0001.53
2022-03-01 22:22:00,,0828.6,5.02,0.00,30.2,29.3,00.0,39.0,32.0,08.7,0000.0,0008.10,0002.60,0001.55
2022-03-01 22:23:00,,0828.6,4.99,0.00,30.2,29.4,00.0,39.1,32.0,08.6,0000.0,0008.60,0002.60,0001.56
2022-03-01 22:24:00,,0828.6,5.01,0.00,30.3,29.4,00.0,39.1,32.1,08.6,0000.0,0008.92,0002.61,0001.58
2022-03-01 22:25:00,,0828.6,4.99,0.00,30.3,29.5,00.0,39.1,32.1,08.6,0000.0,0008.71,0002.60,0001.60
2022-03-01 22:26:00,,0828.6,4.99,0.00,30.3,29.5,00.0,39.1,32.1,08.5,0000.0,0009.49,0002.57,0001.62
2022-03-01 22:27:00,,0828.6,4.99,0.00,30.3,29.4,00.0,39.2,32.1,08.7,0000.0,0008.95,0002.57,0001.64
2022-03-01 22:28:00,,0828.6,5.01,0.00,30.3,27.6,00.0,39.2,31.7,08.6,0000.0,0008.92,0002.51,0001.66
2022-03-01 22:29:00,,0828.6,4.99,0.00,30.1,25.8,00.0,39.1,31.2,08.5,0000.0,0009.13,0002.54,0001.69
2022-03-01 22:30:00,,0828.6,5.02,0.00,29.9,25.8,00.0,39.1,31.1,08.5,0000.0,0008.90,0002.61,0001.75
2022-03-01 22:31:00,,0828.7,5.00,0.00,29.8,26.3,00.0,39.0,31.2,08.7,0000.0,0008.94,0002.69,0001.80
2022-03-01 22:32:00,,0828.5,4.98,0.00,29.8,26.8,00.0,38.9,31.2,08.9,0000.0,0008.89,0002.68,0001.82
2022-03-01 22:33:00,,0828.6,5.01,0.00,29.8,27.3,00.0,38.9,31.3,08.9,0000.0,0008.67,0002.62,0001.83
2022-03-01 22:34:00,,0828.6,4.99,0.00,29.8,27.7,00.0,38.9,31.4,08.9,0000.0,0008.10,0002.65,0001.86
2022-03-01 22:35:00,,0828.7,5.01,0.00,29.8,28.0,00.0,38.9,31.5,09.0,0000.0,0007.95,0002.76,0001.94
2022-03-01 22:36:00,,0828.6,4.99,0.00,29.8,28.3,00.0,38.9,31.6,09.1,0000.0,0008.98,0002.91,0002.02
2022-03-01 22:37:00,,0828.7,5.01,0.00,29.9,28.5,00.0,38.8,31.6,09.2,0000.0,0008.51,0003.02,0002.09
2022-03-01 22:38:00,,0828.6,4.99,0.00,29.9,28.7,00.0,38.9,31.7,08.9,0000.0,0008.82,0003.08,0002.12
2022-03-01 22:39:00,,0828.6,5.01,0.00,29.9,28.8,00.0,38.9,31.8,08.9,0000.0,0009.06,0003.10,0002.16
2022-03-01 22:40:00,,0828.6,4.99,0.00,30.0,28.9,00.0,38.9,31.8,08.8,0000.0,0008.87,0003.11,0002.17
2022-03-01 22:41:00,,0828.6,5.01,0.00,30.0,29.0,00.0,38.9,31.8,08.8,0000.0,0009.19,0003.12,0002.19
2022-03-01 22:42:00,,0828.6,4.99,0.00,30.0,29.1,00.0,38.9,31.9,08.7,0000.0,0009.55,0003.14,0002.23
2022-03-01 22:43:00,,0828.5,5.01,0.00,30.1,29.2,00.0,38.9,31.9,08.9,0000.0,0009.96,0003.16,0002.28
2022-03-01 22:44:00,,0828.6,4.99,0.00,30.1,29.2,00.0,38.9,31.9,08.8,0000.0,0009.93,0003.16,0002.31
2022-03-01 22:45:00,,0828.7,5.02,0.00,30.1,29.3,00.0,39.0,32.0,08.6,0000.0,0010.09,0003.20,0002.34
2022-03-01 22:46:00,,0828.5,4.98,0.00,30.2,29.3,00.0,39.0,32.0,08.6,0000.0,0010.16,0003.20,0002.31
2022-03-01 22:47:00,,0828.8,5.01,0.00,30.2,29.4,00.0,39.0,32.0,08.5,0000.0,0009.35,0003.15,0002.26
2022-03-01 22:48:00,,0828.6,5.00,0.00,30.2,29.4,00.0,39.0,32.1,08.5,0000.0,0008.96,0003.12,0002.23
2022-03-01 22:49:00,,0828.6,5.00,0.00,30.3,29.5,00.0,39.1,32.1,08.4,0000.0,0008.23,0003.10,0002.21
2022-03-01 22:50:00,,0828.6,5.00,0.00,30.3,29.5,00.0,39.1,32.2,08.3,0000.0,0008.00,0003.15,0002.23
2022-03-01 22:51:00,,0828.6,5.00,0.00,30.3,29.4,00.0,39.1,32.2,08.3,0000.0,0008.08,0003.18,0002.27
2022-03-01 22:52:00,,0828.7,5.00,0.00,30.3,27.6,00.0,39.1,31.7,08.3,0000.0,0007.78,0003.17,0002.26
2022-03-01 22:53:00,,0828.6,5.02,0.00,30.0,25.8,00.0,39.1,31.1,08.5,0000.0,0007.74,0003.12,0002.23
2022-03-01 22:54:00,,0828.6,4.99,0.00,29.9,25.8,00.0,39.0,31.1,08.8,0000.0,0007.86,0003.14,0002.26
2022-03-01 22:55:00,,0828.7,5.01,0.00,29.8,26.3,00.0,39.0,31.2,08.9,0000.0,0008.24,0003.19,0002.31
2022-03-01 22:56:00,,0828.7,4.99,0.00,29.8,26.8,00.0,38.9,31.2,08.9,0000.0,0008.26,0003.23,0002.39
2022-03-01 22:57:00,,0828.8,5.01,0.00,29.8,27.2,00.0,38.9,31.3,08.9,0000.0,0008.20,0003.25,0002.48
2022-03-01 22:58:00,,0829.0,5.00,0.00,29.8,27.7,00.0,38.8,31.4,09.0,0000.0,0008.57,0003.31,0002.62
2022-03-01 22:59:00,,0829.0,4.99,0.00,29.8,28.0,00.0,38.8,31.5,09.1,0000.0,0008.86,0003.39,0002.75
